"1997/01/01", 87, 98, 70
"1997/01/02", 59, 88, 28
"1997/01/03", 45, 74, 24
"1997/01/04", 40, 62, 24
"1997/01/05", 71,100, 35
"1997/01/06", 69,100, 29
"1997/01/07", 67, 92, 41
"1997/01/08", 68, 90, 39
"1997/01/09", 63, 92, 37
"1997/01/10", 76, 93, 47
"1997/01/11", 65, 97, 32
"1997/01/12", 66, 83, 40
"1997/01/13", 71, 91, 36
"1997/01/14", 77, 99, 49
"1997/01/15", 62, 96, 30
"1997/01/16", 62, 79, 38
"1997/01/17", 69, 89, 39
"1997/01/18", 62, 85, 29
"1997/01/19", 56, 80, 37
"1997/01/20", 69, 98, 32
"1997/01/21", 71, 99, 35
"1997/01/22", 55, 91, 29
"1997/01/23", 56, 84, 36
"1997/01/24", 72, 97, 41
"1997/01/25", 57, 97, 29
"1997/01/26", 39, 59, 28
"1997/01/27", 56, 82, 24
"1997/01/28", 81, 97, 57
"1997/01/29", 55, 92, 22
"1997/01/30", 49, 75, 28
"1997/01/31", 63, 85, 34
"1997/02/01", 60, 85, 31
"1997/02/02", 65, 89, 27
"1997/02/03", 91,100, 42
"1997/02/04","*","*","*"
"1997/02/05","*","*","*"
"1997/02/06","*","*","*"
"1997/02/07","*","*","*"
"1997/02/08","*","*","*"
"1997/02/09","*","*","*"
"1997/02/10","*","*","*"
"1997/02/11","*","*","*"
"1997/02/12","*","*","*"
"1997/02/13", 48, 74, 29
"1997/02/14", 52, 83, 25
"1997/02/15", 68, 92, 51
"1997/02/16", 96,100, 75
"1997/02/17", 44, 89, 22
"1997/02/18", 45, 70, 20
"1997/02/19", 43, 75, 21
"1997/02/20", 56, 95, 21
"1997/02/21", 53, 96, 24
"1997/02/22", 43, 66, 25
"1997/02/23", 52, 92, 26
"1997/02/24", 69, 97, 36
"1997/02/25", 75,100, 31
"1997/02/26", 52, 84, 14
"1997/02/27", 63, 93, 38
"1997/02/28", 81, 97, 65
"1997/03/01", 71, 99, 35
"1997/03/02", 55, 92, 27
"1997/03/03", 66, 94, 41
"1997/03/04", 78, 99, 54
"1997/03/05", 66,100, 18
"1997/03/06", 70, 81, 52
"1997/03/07", 69, 90, 54
"1997/03/08", 53, 86, 20
"1997/03/09", 41, 71, 16
"1997/03/10", 61, 91, 31
"1997/03/11", 57, 93, 17
"1997/03/12", 50, 77, 18
"1997/03/13", 63, 90, 43
"1997/03/14", 86, 95, 61
"1997/03/15", 87, 97, 76
"1997/03/16", 92, 98, 73
"1997/03/17", 63, 87, 39
"1997/03/18", 64, 91, 41
"1997/03/19", 80, 96, 58
"1997/03/20", 60, 85, 37
"1997/03/21", 68, 88, 40
"1997/03/22", 90, 99, 76
"1997/03/23", 78, 97, 62
"1997/03/24", 58, 97, 27
"1997/03/25", 58, 93, 35
"1997/03/26", 75, 93, 53
"1997/03/27", 89, 98, 72
"1997/03/28", 66, 97, 23
"1997/03/29", 76,100, 38
"1997/03/30", 76,100, 37
"1997/03/31", 65, 87, 43
"1997/04/01", 63, 93, 41
"1997/04/02", 87, 94, 75
"1997/04/03", 94, 98, 85
"1997/04/04", 96,100, 85
"1997/04/05",100,100, 99
"1997/04/06", 99,100, 98
"1997/04/07", 95,100, 75
"1997/04/08", 68, 96, 34
"1997/04/09", 76, 95, 48
"1997/04/10", 45, 89, 19
"1997/04/11", 53, 88, 18
"1997/04/12", 47, 90, 27
"1997/04/13", 62, 99, 20
"1997/04/14", 80, 96, 54
"1997/04/15", 68, 90, 44
"1997/04/16", 67, 86, 47
"1997/04/17", 75, 88, 44
"1997/04/18", 76, 99, 42
"1997/04/19", 78, 96, 49
"1997/04/20", 70, 84, 56
"1997/04/21", 69, 89, 46
"1997/04/22", 87, 97, 64
"1997/04/23", 89,100, 57
"1997/04/24", 53, 92, 20
"1997/04/25", 40, 71, 16
"1997/04/26", 52, 86, 16
"1997/04/27", 57, 92, 24
"1997/04/28", 90, 99, 74
"1997/04/29", 83, 99, 48
"1997/04/30", 79, 95, 55
"1997/05/01", 77, 96, 53
"1997/05/02", 81, 99, 50
"1997/05/03", 73, 99, 39
"1997/05/04", 95,100, 84
"1997/05/05", 86,100, 52
"1997/05/06", 79, 95, 59
"1997/05/07", 76, 98, 45
"1997/05/08", 83, 97, 73
"1997/05/09", 75, 99, 45
"1997/05/10", 69, 94, 47
"1997/05/11", 69, 87, 45
"1997/05/12", 81, 93, 62
"1997/05/13", 81, 92, 65
"1997/05/14", 93, 99, 72
"1997/05/15", 95, 99, 88
"1997/05/16", 88,100, 67
"1997/05/17", 91, 99, 67
"1997/05/18", 80, 97, 57
"1997/05/19", 86, 97, 60
"1997/05/20", 94, 98, 84
"1997/05/21", 85, 98, 54
"1997/05/22", 83, 96, 61
"1997/05/23", 84, 95, 70
"1997/05/24", 92, 99, 71
"1997/05/25", 91,100, 73
"1997/05/26", 77, 98, 59
"1997/05/27", 87, 96, 71
"1997/05/28", 72, 95, 43
"1997/05/29", 69, 91, 44
"1997/05/30", 79, 93, 51
"1997/05/31", 92, 98, 78
"1997/06/01", 83, 96, 62
"1997/06/02", 82, 96, 67
"1997/06/03", 73, 91, 52
"1997/06/04", 89, 98, 71
"1997/06/05", 71, 97, 31
"1997/06/06", 89, 97, 70
"1997/06/07", 76,100, 45
"1997/06/08", 88, 98, 74
"1997/06/09", 95, 99, 91
"1997/06/10", 93,100, 76
"1997/06/11", 91, 99, 71
"1997/06/12", 90, 98, 78
"1997/06/13", 85, 96, 61
"1997/06/14", 80, 96, 55
"1997/06/15", 83, 97, 51
"1997/06/16", 92, 98, 79
"1997/06/17", 90, 96, 80
"1997/06/18", 91, 99, 82
"1997/06/19", 92,100, 81
"1997/06/20", 93,100, 80
"1997/06/21", 70, 91, 38
"1997/06/22", 87, 96, 73
"1997/06/23", 91, 98, 73
"1997/06/24", 86, 99, 57
"1997/06/25", 87, 99, 68
"1997/06/26", 82, 96, 60
"1997/06/27", 87, 97, 69
"1997/06/28", 87, 94, 75
"1997/06/29", 72, 94, 37
"1997/06/30", 71, 96, 40
"1997/07/01", 84, 99, 54
"1997/07/02", 87, 99, 69
"1997/07/03", 84, 98, 58
"1997/07/04", 75, 95, 48
"1997/07/05", 75, 93, 55
"1997/07/06", 81, 95, 48
"1997/07/07", 79, 96, 61
"1997/07/08", 80, 92, 65
"1997/07/09", 84, 99, 66
"1997/07/10", 97, 99, 93
"1997/07/11", 96, 99, 93
"1997/07/12", 97,100, 95
"1997/07/13", 94,100, 83
"1997/07/14", 93,100, 74
"1997/07/15", 85, 98, 58
"1997/07/16", 81, 94, 55
"1997/07/17", 89, 97, 78
"1997/07/18", 84, 98, 60
"1997/07/19", 77, 97, 46
"1997/07/20", 85, 97, 57
"1997/07/21", 89,100, 64
"1997/07/22", 92,100, 75
"1997/07/23", 98,100, 90
"1997/07/24", 94,100, 80
"1997/07/25", 94,100, 83
"1997/07/26", 93,100, 82
"1997/07/27", 88, 98, 65
"1997/07/28", 87, 98, 69
"1997/07/29", 82, 98, 49
"1997/07/30", 86, 98, 71
"1997/07/31", 92, 99, 84
"1997/08/01", 84, 99, 62
"1997/08/02", 89, 99, 69
"1997/08/03", 88, 99, 71
"1997/08/04", 80, 97, 56
"1997/08/05", 85, 96, 74
"1997/08/06", 90, 97, 70
"1997/08/07", 90, 98, 59
"1997/08/08", 89, 98, 73
"1997/08/09", 79, 89, 67
"1997/08/10", 82, 92, 74
"1997/08/11", 89,100, 74
"1997/08/12", 91, 98, 84
"1997/08/13", 85, 99, 57
"1997/08/14", 92, 97, 81
"1997/08/15", 90, 97, 75
"1997/08/16", 85, 94, 77
"1997/08/17", 81, 94, 64
"1997/08/18", 86, 93, 75
"1997/08/19", 82, 94, 65
"1997/08/20", 78, 97, 50
"1997/08/21", 92, 97, 82
"1997/08/22","*","*","*"
"1997/08/23", 90, 97, 72
"1997/08/24", 78, 97, 42
"1997/08/25", 90, 97, 79
"1997/08/26", 93, 97, 86
"1997/08/27", 85, 99, 62
"1997/08/28", 85, 97, 67
"1997/08/29", 86, 97, 59
"1997/08/30", 79, 95, 53
"1997/08/31", 82, 98, 64
"1997/09/01", 83, 99, 51
"1997/09/02", 73, 96, 36
"1997/09/03", 87, 99, 65
"1997/09/04", 89, 99, 74
"1997/09/05", 91, 97, 83
"1997/09/06", 86, 97, 66
"1997/09/07", 83, 98, 62
"1997/09/08", 92,100, 67
"1997/09/09", 97, 99, 94
"1997/09/10", 86,100, 58
"1997/09/11", 89, 97, 78
"1997/09/12", 91, 98, 82
"1997/09/13", 90, 97, 81
"1997/09/14", 94, 98, 86
"1997/09/15", 87, 96, 77
"1997/09/16", 89,100, 73
"1997/09/17", 92,100, 67
"1997/09/18", 97,100, 88
"1997/09/19", 80, 99, 53
"1997/09/20", 69, 87, 47
"1997/09/21", 91, 99, 70
"1997/09/22", 84, 97, 64
"1997/09/23", 90, 97, 83
"1997/09/24", 85, 92, 74
"1997/09/25", 78, 92, 63
"1997/09/26", 95,100, 77
"1997/09/27", 83, 98, 58
"1997/09/28", 66, 82, 46
"1997/09/29", 69, 88, 41
"1997/09/30", 61, 92, 43
"1997/10/01", 60, 79, 39
"1997/10/02", 71, 88, 43
"1997/10/03", 80, 95, 58
"1997/10/04", 86, 98, 64
"1997/10/05", 89,100, 66
"1997/10/06", 69, 94, 51
"1997/10/07", 90, 99, 69
"1997/10/08", 76,100, 37
"1997/10/09", 64, 91, 41
"1997/10/10", 85, 97, 62
"1997/10/11", 79, 98, 42
"1997/10/12", 71, 90, 34
"1997/10/13", 71, 91, 32
"1997/10/14", 76, 97, 35
"1997/10/15", 72, 99, 45
"1997/10/16", 68, 91, 40
"1997/10/17", 87, 98, 74
"1997/10/18", 89,100, 51
"1997/10/19", 79, 94, 65
"1997/10/20", 85,100, 54
"1997/10/21","*","*","*"
"1997/10/22", 88,100, 75
"1997/10/23", 82, 93, 66
"1997/10/24", 89, 96, 72
"1997/10/25", 81, 97, 49
"1997/10/26", 62, 85, 25
"1997/10/27", 54, 84, 29
"1997/10/28", 68, 87, 41
"1997/10/29", 78, 96, 49
"1997/10/30", 76, 98, 39
"1997/10/31", 74, 92, 30
"1997/11/01", 50, 83, 24
"1997/11/02", 69, 97, 49
"1997/11/03", 92, 98, 80
"1997/11/04", 94,100, 86
"1997/11/05", 88,100, 46
"1997/11/06", 60, 88, 36
"1997/11/07", 66, 91, 37
"1997/11/08", 70, 94, 41
"1997/11/09", 66, 97, 44
"1997/11/10", 75, 84, 62
"1997/11/11", 76, 99, 34
"1997/11/12", 88, 98, 66
"1997/11/13", 94, 99, 85
"1997/11/14", 96, 99, 91
"1997/11/15", 95,100, 81
"1997/11/16", 80, 93, 59
"1997/11/17", 98,100, 81
"1997/11/18", 62, 99, 26
"1997/11/19", 63, 92, 31
"1997/11/20", 85, 98, 69
"1997/11/21", 96,100, 88
"1997/11/22",100,100, 99
"1997/11/23", 75,100, 40
"1997/11/24", 66, 89, 38
"1997/11/25", 76, 91, 53
"1997/11/26", 90,100, 77
"1997/11/27", 79, 97, 54
"1997/11/28", 70, 85, 53
"1997/11/29", 95,100, 77
"1997/11/30", 78, 97, 49
"1997/12/01", 81, 99, 54
"1997/12/02", 85, 99, 38
"1997/12/03", 49, 76, 25
"1997/12/04", 61, 83, 39
"1997/12/05", 72, 90, 53
"1997/12/06", 84, 93, 70
"1997/12/07", 92, 99, 84
"1997/12/08",100,100, 98
"1997/12/09", 93,100, 77
"1997/12/10", 63, 88, 26
"1997/12/11", 58, 89, 34
"1997/12/12", 54, 86, 25
"1997/12/13", 61, 77, 43
"1997/12/14", 69, 91, 47
"1997/12/15", 68, 95, 38
"1997/12/16", 70, 93, 41
"1997/12/17", 84, 99, 67
"1997/12/18", 93,100, 67
"1997/12/19", 86,100, 36
"1997/12/20", 84, 98, 56
"1997/12/21", 69, 90, 42
"1997/12/22", 61, 73, 46
"1997/12/23", 70, 83, 57
"1997/12/24", 70, 81, 62
"1997/12/25", 71, 82, 56
"1997/12/26", 80, 91, 63
"1997/12/27", 85, 98, 74
"1997/12/28", 76, 99, 51
"1997/12/29", 64, 86, 39
"1997/12/30", 93,100, 69
"1997/12/31", 72, 99, 47
